DECAYED

STARLINK-4441, 53510 (Decayed)

Orbit data source: Space-Track

STARLINK-4441, 53510 was a payload satellite owned by SpaceX/Seattle (US) in LEO that was launched on Fri, 12 Aug 2022 UTC via an FALCON 9 launch vehicle from the Air Force Western Test Range (AFWTR). Payload-class satellites include a variety of spacecraft equipped with specific instruments for various scientific and technological missions. These include communications satellites like Starlink; space stations such as the ISS; scientific satellites like the Hubble; Earth observation satellites from companies like Planet Labs, Umbra, and HawkEye 360; GPS; miniature CubeSats for education and research; and military/defense satellites.

Not visible in the next 10 days
Identifier
53510, 2022-099AX
Orbit
Decayed
Country
Flag of USUS
Related business
Manufacturer
SpaceX/Seattle
Mission
Decayed Commercial Communications
Bus & Motor
STARLINK, Unknown motor
Mass
300 kg wet, ~275 kg dry
Launch date (UTC)
2022-08-12 (4 years ago)
Launch vehicle
FALCON 9
Launch site
Air Force Western Test Range (AFWTR)
Object type
Payload
Rocket body
Debris
Shape & HBR
Box + 1 Pan, 10.1 m
Radar Cross Section
13.562 m², Large (>1 m²)

Expand to show TLE details & history
Last TLE update: 1 year ago

TLE from 1 year ago
0 STARLINK-4441
1 53510U 22099AX  25103.34624727  .04407214  26470-5  91101-3 0  9993
2 53510  97.6484 230.8110 0010853 273.5241 146.7790 16.30977839146974
Epoch: 2025-04-13T08:18Z
TLE epoch observation values (Epoch: 2025-04-13T08:18:35.764Z)
Latitude
59.59274°
Longitude
-108.76557°
Altitude
206.061 km
Speed
7.785 km/s
True Right ascension
14h 30m 38s
True Declination
59° 25' 47"
Sunlit
Object was in full shadow at epoch
Visualization orbit readout
Latitude
Unknown
Longitude
Unknown
Altitude
Unknown
Speed
Unknown
Apparent Right ascension
Unknown
Apparent Declination
Unknown
Sunlit
N/A
Visualization observer readout
Local Sidereal Time
06:09:57
Azimuth
Unknown
Elevation
Unknown
Doppler factor
Unknown
Orbital elements
Apogee altitude
193.869 km
Perigee altitude
179.619 km
Semi-major axis
6,564.881 km
Eccentricity
0.00109
Inclination
97.6484°
RAAN
230.811°
Arg. of periapsis
273.5241°
True anomaly
146.84706°
Mean anomaly
146.779°
Eccentric anomaly
146.81304°
Mean motion
4.0804 °/min
Orbital period
88.23 mins
BSTAR
0.00091101
Loading maneuver chart data...
Computing Atmospheric mass density...
Loading historical data...
Loading historical data...
Loading historical data...
Loading historical data...
Loading historical data...
Loading historical data...
Loading historical data...

Documentation

Showing up to 5 results
|